Tracking 29892 objects as of 21-Nov-2024
HD Live streaming from Space Station
objects crossing your sky now

FENGYUN 1C DEB

Track FENGYUN 1C DEB now!
10-day predictions


NORAD ID: 30221
Int'l Code: 1999-025WE
Perigee: 644.9 km
Apogee: 856.7 km
Inclination: 99.0 °
Period: 99.7 minutes
Semi major axis: 7121 km
RCS: 0.045 m2 (small)
Launch date: May 10, 1999
Source: People's Republic of China (PRC)
Launch site: Taiyaun Space Center, China (TSC)

Note: This is SATELLITE DEBRIS
Your satellite tracking list
Your tracking list is empty




NASA's NSSDC Master Catalog

Two Line Element Set (TLE):
1 30221U 99025WE  24325.61754930  .00001729  00000-0  45098-3 0  9992
2 30221  98.9911  25.5263 0148697 114.4791 247.1988 14.44504433938092
Source of the keplerian elements: AFSPC